Weather History for Alliance, NE

Change the Weather History Date:

Tuesday, February 19, 2013

  Actual Average Record
Temperature  
Mean Temperature 19 °F 28 °F  
Max Temperature 36 °F 42 °F 66 °F (1981)
Min Temperature 1 °F 13 °F -16 °F (2006)
Degree Days  
Heating Degree Days 46 37  
Month to date heating degree days 689 740  
Since 1 July heating degree days 4758 5085  
Cooling Degree Days 0 0  
Month to date cooling degree days 0 0  
Year to date cooling degree days 0 0  
Moisture  
Dew Point 10 °F    
Average Humidity 70    
Maximum Humidity 87    
Minimum Humidity 52    
Precipitation  
Precipitation 0.00 in 0.02 in 0.27 in (1953)
Month to date precipitation T 0.26  
Year to date precipitation 0.22 0.44  
Sea Level Pressure  
Sea Level Pressure 30.15 in    
Wind  
Wind Speed 12 mph (SSE)    
Max Wind Speed 25 mph    
Max Gust Speed 31 mph    
Visibility 10 miles    
Events      
T = Trace of Precipitation, MM = Missing Value Source: NWS Daily Summary

Daily Weather History Graph

Daily Weather History Graph

Search for Another Location

Airport:

Trip Planner

Search our weather history database for the weather conditions in past years. The results will help you decide how hot, cold, wet, or windy it might be!

Date:

Astronomy

Feb. 19, 2013 Rise Set
Actual Time 6:41 AM MST 5:29 PM MST
Civil Twilight 6:12 AM MST 5:57 PM MST
Nautical Twilight 5:40 AM MST 6:30 PM MST
Astronomical Twilight 5:07 AM MST 7:02 PM MST
Moon 11:59 AM MST 2:17 AM MST
Length of Visible Light 11h 45m
Length of Day
10h 48m
Waxing Gibbous, 68% of the Moon is Illuminated
Feb 19
Waxing Gibbous
Feb 25
Full
Mar 4
Last Quarter
Mar 11
New
Mar 19
First Quarter

Hourly Weather History & Observations

Time (MST) Temp. Windchill Dew Point Humidity Pressure Visibility Wind Dir Wind Speed Gust Speed Precip Events Conditions
12:53 AM 9.0 °F -2.2 °F 5.0 °F 84% 30.22 in 10.0 mi West 6.9 mph - N/A   Clear
1:53 AM 6.1 °F - 1.9 °F 83% 30.23 in 10.0 mi Calm Calm - N/A   Clear
2:53 AM 3.9 °F -5.3 °F -0.0 °F 84% 30.24 in 10.0 mi WNW 4.6 mph - N/A   Clear
3:53 AM 1.9 °F -10.6 °F -2.0 °F 83% 30.25 in 10.0 mi WSW 6.9 mph - N/A   Clear
4:53 AM 3.0 °F - -2.0 °F 80% 30.26 in 10.0 mi Calm Calm - N/A   Clear
5:53 AM 3.9 °F - -2.0 °F 76% 30.28 in 10.0 mi Calm Calm - N/A   Clear
6:28 AM 3.2 °F - -0.4 °F 85% 30.11 in 10.0 mi Calm Calm - N/A   Scattered Clouds
6:36 AM 6.8 °F - 1.4 °F 79% 30.11 in 10.0 mi Calm Calm - N/A   Mostly Cloudy
6:53 AM 6.1 °F - 1.0 °F 80% 30.28 in 10.0 mi Calm Calm - N/A   Mostly Cloudy
7:05 AM 6.8 °F - 1.4 °F 79% 30.10 in 10.0 mi Calm Calm - N/A   Scattered Clouds
7:53 AM 12.0 °F - 9.0 °F 88% 30.27 in 10.0 mi Calm Calm - N/A   Clear
8:53 AM 19.9 °F 8.6 °F 16.0 °F 85% 30.26 in 10.0 mi SSE 10.4 mph - N/A   Clear
9:17 AM 21.2 °F 8.9 °F 17.6 °F 86% 30.10 in 10.0 mi SE 12.7 mph - N/A   Partly Cloudy
9:53 AM 24.8 °F 13.4 °F 17.6 °F 74% 30.10 in 10.0 mi SSE 12.7 mph - N/A   Scattered Clouds
11:53 AM 32.0 °F 21.2 °F 19.0 °F 59% 30.18 in 10.0 mi SE 16.1 mph 21.9 mph N/A   Clear
12:53 PM 35.1 °F 24.8 °F 19.0 °F 52% 30.13 in 10.0 mi SSE 17.3 mph 26.5 mph N/A   Clear
1:53 PM 36.0 °F 25.0 °F 19.0 °F 50% 30.12 in 10.0 mi SSE 20.7 mph 26.5 mph N/A   Clear
2:53 PM 35.1 °F 23.5 °F 19.9 °F 54% 30.11 in 10.0 mi SE 21.9 mph 28.8 mph N/A   Clear
3:53 PM 35.1 °F 23.5 °F 19.9 °F 54% 30.10 in 10.0 mi SE 21.9 mph 27.6 mph N/A   Clear
5:53 PM 30.0 °F 19.1 °F 18.0 °F 61% 30.10 in 10.0 mi SE 15.0 mph - N/A   Clear
6:53 PM 27.0 °F 16.1 °F 18.0 °F 69% 30.11 in 10.0 mi ESE 12.7 mph - N/A   Clear
7:53 PM 25.0 °F 11.7 °F 17.1 °F 72% 30.10 in 10.0 mi SE 17.3 mph - N/A   Clear
8:53 PM 25.0 °F 10.2 °F 16.0 °F 69% 30.08 in 10.0 mi SE 21.9 mph - N/A   Clear
9:53 PM 24.1 °F 9.4 °F 14.0 °F 65% 30.09 in 10.0 mi SE 20.7 mph 29.9 mph N/A   Clear
10:53 PM 21.2 °F 6.0 °F 12.2 °F 68% 29.96 in 10.0 mi SE 19.6 mph 29.9 mph N/A   Clear
11:53 PM 19.9 °F 4.8 °F 10.0 °F 65% 30.05 in 10.0 mi SE 18.4 mph - N/A   Clear